Siemreap, Cambodia

7:44 PM +07 on April 25, 2017 (GMT +0700)
Siem Reap

Weather History for VDSR - April, 2013

Change the Weather History Date:

Friday, April 26, 2013

  Actual Average Record
Temperature  
Mean Temperature 86 °F -  
Max Temperature 98 °F - - ()
Min Temperature 73 °F - - ()
Cooling Degree Days 20    
Growing Degree Days 36 (Base 50)    
Moisture  
Dew Point 72 °F    
Average Humidity 65    
Maximum Humidity 100    
Minimum Humidity 39    
Precipitation  
Precipitation 0.00 in - - ()
Sea Level Pressure  
Sea Level Pressure 29.78 in    
Wind  
Wind Speed 3 mph ()    
Max Wind Speed 14 mph    
Max Gust Speed -    
Visibility 5.4 miles    
Events Rain , Thunderstorm    
T = Trace of Precipitation, MM = Missing Value Source: Averaged Metar Reports

Daily Weather History Graph

Daily Weather History Graph

Search for Another Location

Airport or City:

Trip Planner

Search our weather history database for the weather conditions in past years. The results will help you decide how hot, cold, wet, or windy it might be!

Date:

Astronomy

Apr. 26, 2013 Rise Set
Actual Time 5:45 AM +07 6:19 PM +07
Civil Twilight 5:23 AM +07 6:41 PM +07
Nautical Twilight 4:58 AM +07 7:06 PM +07
Astronomical Twilight 4:32 AM +07 7:32 PM +07
Moon 6:55 PM +07 (4/26) 5:52 AM +07 (4/26)
Length of Visible Light 13h 17m
Length of Day
12h 33m
Full, 100% of the Moon is Illuminated
Apr 26
Full
May 2
Last Quarter
May 10
New
May 18
First Quarter
May 25
Full

Hourly Weather History & Observations

Time (+07) Temp. Heat Index Dew Point Humidity Pressure Visibility Wind Dir Wind Speed Gust Speed Precip Events Conditions
12:00 AM 82.4 °F 87.2 °F 71.6 °F 70% 29.83 in 5.6 mi Calm Calm - N/A   Scattered Clouds
12:30 AM 80.6 °F 84.6 °F 71.6 °F 74% 29.83 in 5.6 mi Calm Calm - N/A   Scattered Clouds
1:00 AM 80.6 °F 84.6 °F 71.6 °F 74% 29.80 in 5.6 mi Calm Calm - N/A   Scattered Clouds
7:00 AM 82.4 °F 88.2 °F 73.4 °F 74% 29.83 in 5.6 mi Calm Calm - N/A   Partly Cloudy
7:30 AM 84.2 °F 90.9 °F 73.4 °F 70% 29.83 in 5.6 mi Variable 1.2 mph - N/A   Partly Cloudy
8:00 AM 86.0 °F 93.4 °F 73.4 °F 66% 29.83 in 5.6 mi Calm Calm - N/A   Partly Cloudy
8:30 AM 87.8 °F 95.6 °F 73.4 °F 62% 29.83 in 5.6 mi Variable 2.3 mph - N/A   Partly Cloudy
9:00 AM 89.6 °F 98.2 °F 73.4 °F 59% 29.83 in 6.2 mi Variable 3.5 mph - N/A   Partly Cloudy
9:30 AM 89.6 °F 98.2 °F 73.4 °F 59% 29.83 in 6.2 mi WNW 4.6 mph - N/A   Partly Cloudy
10:00 AM 91.4 °F 100.1 °F 73.4 °F 55% 29.86 in 6.2 mi SW 4.6 mph - N/A   Partly Cloudy
10:30 AM 93.2 °F 100.5 °F 71.6 °F 49% 29.86 in 6.2 mi WSW 5.8 mph - N/A   Scattered Clouds
11:00 AM 93.2 °F 100.5 °F 71.6 °F 49% 29.83 in 6.2 mi West 5.8 mph - N/A   Scattered Clouds
11:30 AM 95.0 °F 103.2 °F 71.6 °F 47% 29.83 in 6.2 mi Variable 2.3 mph - N/A   Scattered Clouds
12:00 PM 96.8 °F 105.1 °F 71.6 °F 44% 29.83 in 6.2 mi West 4.6 mph - N/A   Scattered Clouds
12:30 PM 95.0 °F 101.3 °F 69.8 °F 44% 29.80 in 6.2 mi Variable 3.5 mph - N/A   Scattered Clouds
1:00 PM 98.6 °F 107.7 °F 71.6 °F 42% 29.77 in 6.2 mi West 5.8 mph - N/A   Scattered Clouds
1:30 PM 96.8 °F 103.1 °F 69.8 °F 41% 29.77 in 6.2 mi Variable 2.3 mph - N/A   Scattered Clouds
2:00 PM 96.8 °F 103.1 °F 69.8 °F 41% 29.74 in 6.2 mi Variable 3.5 mph - N/A   Scattered Clouds
2:30 PM 98.6 °F 105.5 °F 69.8 °F 39% 29.71 in 6.2 mi Variable 3.5 mph - N/A   Partly Cloudy
3:00 PM 96.8 °F 103.1 °F 69.8 °F 41% 29.68 in 6.2 mi SW 5.8 mph - N/A   Partly Cloudy
3:30 PM 95.0 °F 103.2 °F 71.6 °F 47% 29.68 in 6.2 mi WSW 5.8 mph - N/A   Partly Cloudy
4:00 PM 86.0 °F 90.4 °F 69.8 °F 58% 29.68 in 5.6 mi West 13.8 mph - N/A Rain , Thunderstorm Light Thunderstorms and Rain
4:30 PM 87.8 °F 92.6 °F 69.8 °F 55% 29.68 in 5.6 mi Variable 3.5 mph - N/A Thunderstorm Thunderstorm
5:00 PM 84.2 °F 92.3 °F 75.2 °F 74% 29.68 in 5.6 mi Variable 2.3 mph - N/A   Partly Cloudy
5:30 PM 82.4 °F 88.2 °F 73.4 °F 74% 29.71 in 5.6 mi WSW 11.5 mph - N/A   Scattered Clouds
6:00 PM 82.4 °F 87.2 °F 71.6 °F 70% 29.71 in 5.6 mi WSW 8.1 mph - N/A   Scattered Clouds
6:30 PM 82.4 °F 87.2 °F 71.6 °F 70% 29.71 in 5.6 mi SW 4.6 mph - N/A   Scattered Clouds
7:00 PM 82.4 °F 87.2 °F 71.6 °F 70% 29.74 in 5.6 mi SSW 8.1 mph - N/A   Partly Cloudy
7:30 PM 82.4 °F 88.2 °F 73.4 °F 74% 29.77 in 5.6 mi SSW 6.9 mph - N/A   Partly Cloudy
8:00 PM 77.0 °F - 73.4 °F 89% 29.83 in 0.3 mi SSE 13.8 mph - N/A Rain , Thunderstorm Heavy Thunderstorms and Rain
8:30 PM 73.4 °F - 73.4 °F 100% 29.80 in 1.9 mi ESE 10.4 mph - N/A Rain , Thunderstorm Thunderstorms and Rain
9:00 PM 75.2 °F - 75.2 °F 100% 29.80 in 3.1 mi ESE 9.2 mph - N/A Rain , Thunderstorm Thunderstorms and Rain
9:30 PM 77.0 °F - 73.4 °F 89% 29.83 in 5.0 mi NE 12.7 mph - N/A Rain , Thunderstorm Light Thunderstorms and Rain
10:00 PM 77.0 °F - 73.4 °F 89% 29.83 in 5.0 mi North 6.9 mph - N/A Thunderstorm Light Thunderstorm
10:30 PM 77.0 °F - 73.4 °F 89% 29.83 in 5.0 mi Calm Calm - N/A Thunderstorm Thunderstorm
11:00 PM 78.8 °F - 73.4 °F 83% 29.80 in 5.0 mi East 4.6 mph - N/A Thunderstorm Thunderstorm
11:30 PM 78.8 °F - 73.4 °F 83% 29.80 in 5.0 mi Variable 2.3 mph - N/A   Scattered Clouds